Location: ????? ???????
(25.7275°N, 32.5929°E)
Time: 11:03:51
(UTC+00:00)

DELTA 2 R/B (1) - Pass Details

Date: 02 March 2021
Orbit: 790 x 803 km, 39.6° (Epoch: 15 April)

Event Time Altitude Azimuth Distance (km) Brightness Sun altitude
Rises 17:28:45 0° 249° (WSW) 3,272 7.9 -22.6°
Reaches altitude 10° 17:31:16 10° 253° (WSW) 2,343 7.0 -23.1°
Maximum altitude 17:36:42 56° 331° (NNW) 929 4.0 -24.4°
Enters shadow 17:38:21 40° 25° (NNE) 1,140 4.2 -24.7°
